{"data":{"norad_id":61540,"intl_designator":"2024-184J","name":"STARLINK-11350 [DTC]","alt_names":[],"object_type":"PAYLOAD","status":"ACTIVE","operator":null,"country":"US","launch_date":"2024-10-15","launch_site_code":"AFWTR","launch_vehicle":null,"mission":null,"orbit_class":"UNKNOWN","rcs_meters":null,"size_class":null,"mass_kg":null,"dimensions":null,"purposes":["comms"],"wikipedia_slug":null,"has_3d_model":false,"image_url":null,"decayed_at":null,"tle_current":{"epoch":"2026-09-21T13:04:50.055456Z","epoch_age_seconds":101810,"freshness":"FRESH","line1":"1 61540U 24184J   26264.54502379 -.00000037  00000+0  45524-5 0  9995","line2":"2 61540  53.1596 350.3974 0000926  74.1441 285.9679 15.69703100111186","mean_motion":15.697031,"eccentricity":9.26e-5,"inclination_deg":53.1596,"raan_deg":350.3974,"arg_perigee_deg":74.1441,"mean_anomaly_deg":285.9679,"bstar":4.5524e-6,"rev_number":11118,"period_min":91.737093466911,"perigee_km":359.12256763923,"apogee_km":360.37042366263,"semimajor_km":6737.8834956509,"source":"CELESTRAK","updated_at":"2026-09-22T09:00:49.365428Z"}}}